Zurück zum Katalog

MEHDA

AktivWissenschaftLEO
NORAD 58849·PAYLOAD·🇮🇷 Iran
Dieser Satellitenname wurde noch nicht durch offizielle Quellen bestätigt.

Gestartet Jan 28, 2024 von Semnan Space Center

Loading…

Nächste Überflüge (nächste 24 Stunden)

TLE

AktuellSource: Space-Track

Epoche: Sep 14, 2026, 14:52 UTC

1 58849U 24018A   26257.61970878  .00000881  00000-0  12026-3 0  9998
2 58849  58.6878 276.3477 0426176 210.5580 146.9984 14.39842454138053

Verfolge MEHDA in Echtzeit mit AllMySat

Download on the App Store